This is the latest recevied weather packets stored in our database for station/object OK2IGL-6. If no packets are shown the sender has not sent any weather packets the latest 1 day(s).
| Time | Temp. | Humidity | Pressure | Rain* | Wind** | Luminosity | Snow |
|---|---|---|---|---|---|---|---|
| 1777985729 | 27.22° C | 36% | 1003 hPa | - | 0 m/s | - | - |
| 1777985300 | 27.22° C | 39% | 1003 hPa | - | 0 m/s | - | - |
| 1777984870 | 27.22° C | 39% | 1004 hPa | - | 0 m/s | - | - |
| 1777984441 | 26.67° C | 39% | 1004 hPa | - | 0 m/s | - | - |
| 1777983850 | 26.67° C | 38% | 1004 hPa | - | 0 m/s | - | - |
| 1777983421 | 26.67° C | 40% | 1005 hPa | - | 0 m/s | - | - |
| 1777982991 | 26.67° C | 40% | 1004 hPa | - | 0 m/s | - | - |
| 1777982562 | 26.67° C | 41% | 1004 hPa | - | 0 m/s | - | - |
| 1777982132 | 26.67° C | 39% | 1004 hPa | - | 0 m/s | - | - |
| 1777981703 | 26.11° C | 41% | 1004 hPa | - | 0 m/s | - | - |
| 1777981273 | 25.56° C | 41% | 1004 hPa | - | 0 m/s | - | - |
| 1777980844 | 24.44° C | 41% | 1004 hPa | - | 0 m/s | - | - |
| 1777980414 | 25° C | 41% | 1004 hPa | - | 0 m/s | - | - |
| 1777979985 | 25.56° C | 41% | 1004 hPa | - | 0 m/s | - | - |
| 1777979556 | 26.67° C | 41% | 1004 hPa | - | 0 m/s | - | - |
| 1777979126 | 26.67° C | 42% | 1005 hPa | - | 0 m/s | - | - |
| 1777978697 | 25.56° C | 43% | 1005 hPa | - | 0 m/s | - | - |
| 1777978267 | 25.56° C | 42% | 1004 hPa | - | 0 m/s | - | - |
| 1777977838 | 25.56° C | 42% | 1005 hPa | - | 0 m/s | - | - |
| 1777977247 | 25.56° C | 42% | 1005 hPa | - | 0 m/s | - | - |
| 1777976818 | 25.56° C | 42% | 1005 hPa | - | 0 m/s | - | - |
| 1777976388 | 25.56° C | 42% | 1005 hPa | - | 0 m/s | - | - |
| 1777975959 | 25.56° C | 43% | 1005 hPa | - | 0 m/s | - | - |
| 1777975530 | 25.56° C | 43% | 1005 hPa | - | 0 m/s | - | - |
| 1777975100 | 25.56° C | 44% | 1006 hPa | - | 0 m/s | - | - |
* Rain since midnight (hover to see other rain measurements)
** Current wind speed in m/s (hover to see current wind gust speed)